Regional Weather Roundup
Issued by NWS Little Rock, AR

Home | Current Version | Previous Version | Graphics & Text | Print | Product List | Glossary On
Versions: 1 2 3 4 5 6 7 8 9 10 11 12 13 14 15 16 17 18 19 20 21 22 23 24 25 26 27 28 29 30 31 32 33 34 35 36 37 38 39 40 41 42 43 44 45 46 47 48 49 50
000
ASUS44 KLZK 061205
RWRLZK

WEATHER ROUNDUP FOR ARKANSAS
NATIONAL WEATHER SERVICE LITTLE ROCK AR
700 AM CDT WED MAY 06 2015

NOTE: "FAIR" INDICATES FEW OR NO CLOUDS BELOW 12,000 FEET WITH NO
SIGNIFICANT WEATHER AND/OR OBSTRUCTIONS TO VISIBILITY.

ARZ001-003-010-029-061300-
NORTHWEST ARKANSAS

CITY           SKY/WX    TMP DP  RH WIND       PRES   REMARKS
FAYETTEVILLE   LGT RAIN  63  63 100 S9        30.07R FOG
6HR MIN TEMP:  63; 6HR MAX TEMP:  72; 6HR PCP:  0.04;

FORT SMITH     LGT RAIN  69  59  70 SW10      30.05R
6HR MIN TEMP:  69; 6HR MAX TEMP:  75; 6HR PCP:  0.01;

HARRISON       CLOUDY    67  58  72 S8        30.08R
6HR MIN TEMP:  64; 6HR MAX TEMP:  67;

BENTONVILLE    CLOUDY    61  54  77 W9G20     30.10R
                                      6HR PCP:  0.34;

ROGERS         HVY RAIN  60  57  89 NW20G28   30.10R FOG
6HR MIN TEMP:  60; 6HR MAX TEMP:  70;

SILOAM SPGS    CLOUDY    61  54  77 W8G16     30.09R
6HR MIN TEMP:  61; 6HR MAX TEMP:  72; 6HR PCP:  0.72;

SPRINGDALE     LGT RAIN  66  61  82 S15       30.09R
$$

ARZ004-005-016-061300-
NORTH CENTRAL ARKANSAS

CITY           SKY/WX    TMP DP  RH WIND       PRES   REMARKS
BATESVILLE     MOCLDY    66  55  68 CALM      30.12R
6HR MIN TEMP:  64; 6HR MAX TEMP:  70;

FLIPPIN        PTCLDY    63  54  72 SE6       30.07R
6HR MIN TEMP:  57; 6HR MAX TEMP:  66;

MTN HOME       PTCLDY    64  54  69 SE5       30.08S
6HR MIN TEMP:  62; 6HR MAX TEMP:  66;

$$

ARZ040-041-061300-
WEST CENTRAL ARKANSAS

CITY           SKY/WX    TMP DP  RH WIND       PRES   REMARKS
MENA           CLOUDY    70  59  68 S8G17     30.08R
MOUNT IDA      CLOUDY    69  60  73 CALM      30.07R
6HR MIN TEMP:  69; 6HR MAX TEMP:  73;

$$

ARZ009-017-025-026-028-061300-
NORTHEAST ARKANSAS

CITY           SKY/WX    TMP DP  RH WIND       PRES   REMARKS
JONESBORO      CLEAR     56  55  97 NE5       30.13R
6HR MIN TEMP:  54; 6HR MAX TEMP:  59;

NEWPORT        MOCLDY    64  57  78 VRB6      30.13R
6HR MIN TEMP:  62; 6HR MAX TEMP:  68;

WALNUT RIDGE   CLEAR     61  54  77 NW3       30.11S
6HR MIN TEMP:  57; 6HR MAX TEMP:  64;

BLYTHEVILLE    SUNNY     65  56  72 S6        30.15R
6HR MIN TEMP:  63; 6HR MAX TEMP:  68;

$$

ARZ022-023-033-042-044-061300-
CENTRAL ARKANSAS

CITY           SKY/WX    TMP DP  RH WIND       PRES   REMARKS
LITTLE ROCK    MOCLDY    65  57  75 SE3       30.10R
6HR MIN TEMP:  64; 6HR MAX TEMP:  68;

N LITTLE ROCK    N/A     66  59  76 SW5       30.10R
6HR MIN TEMP:  66; 6HR MAX TEMP:  69;

JACKSONVILLE   MOCLDY    62  58  88 NE3       30.10R
6HR MIN TEMP:  60; 6HR MAX TEMP:  67;

SEARCY         CLOUDY    61  58  90 CALM      30.13R
6HR MIN TEMP:  58; 6HR MAX TEMP:  67;

HOT SPRINGS    MOCLDY    68  57  68 SE5       30.10R
6HR MIN TEMP:  67; 6HR MAX TEMP:  72;

RUSSELLVILLE   MOCLDY    68  57  68 E5        30.08R
6HR MIN TEMP:  68; 6HR MAX TEMP:  69;

CLINTON        FAIR      57  57 100 CALM      30.12R FOG
$$

ARZ036-061300-
EAST ARKANSAS

CITY           SKY/WX    TMP DP  RH WIND       PRES   REMARKS
WEST MEMPHIS   CLEAR     62  57  83 SE3       30.13R
6HR MIN TEMP:  58; 6HR MAX TEMP:  66;

$$

ARZ050-053-066-070-073-061300-
SOUTHWEST ARKANSAS

CITY           SKY/WX    TMP DP  RH WIND       PRES   REMARKS
ARKADELPHIA    FAIR      61  61 100 CALM      30.10R
6HR MIN TEMP:  61; 6HR MAX TEMP:  65;

CAMDEN         PTCLDY    61  55  82 CALM      30.10R
TEXARKANA      CLOUDY    66  63  90 SE5       30.07R
6HR MIN TEMP:  66; 6HR MAX TEMP:  70;

EL DORADO      PTCLDY    60  56  86 CALM      30.09R
6HR MIN TEMP:  60; 6HR MAX TEMP:  69;

DE QUEEN       CLOUDY    67  64  90 E5        30.04R
6HR MIN TEMP:  66; 6HR MAX TEMP:  72; 6HR PCP: TRACE;

$$

ARZ056-057-069-061300-
SOUTHEAST ARKANSAS

CITY           SKY/WX    TMP DP  RH WIND       PRES   REMARKS
PINE BLUFF     CLEAR     61  58  90 CALM      30.11R
6HR MIN TEMP:  60; 6HR MAX TEMP:  66;

STUTTGART      CLEAR     64  55  72 SE5       30.12R
6HR MIN TEMP:  63; 6HR MAX TEMP:  70;

MONTICELLO     CLEAR     60  58  92 CALM      30.11R
6HR MIN TEMP:  58; 6HR MAX TEMP:  67;


$$





USA.gov is the U.S. government's official web portal to all federal, state and local government web resources and services.